Regional Weather Roundup
Issued by NWS Sterling, VA

Home | Current Version | Previous Version | Graphics & Text | Print | Product List | Glossary On
Versions: 1 2 3 4 5 6 7 8 9 10 11 12 13 14 15 16 17 18 19 20 21 22 23 24 25 26 27 28 29 30 31 32 33 34 35 36 37 38 39 40 41 42 43 44 45 46 47 48 49 50
000
ASUS41 KLWX 021510
RWRLWX

REGIONAL WEATHER ROUNDUP
NATIONAL WEATHER SERVICE BALTIMORE MD/WASHINGTON DC
1100 AM EDT THU JUL 02 2015

Note: "FAIR" indicates few or no clouds below 12,000 feet
with no significant weather and/or obstructions to visibility.
 TC=TEMPERATURE CELSIUS

 * =Non NWS site. Station does not report precipitation (e.g. rain,
    snow, etc.), thunder, or fog.

DCZ001-MDZ009-015-VAZ040>042-051-053>054-021600-
WASHINGTON METRO

CITY           SKY/WX    TMP DP  RH WIND       PRES   REMARKS
WASHINGTON NAT LGT RAIN  73  64  73 N7        29.91F
DULLES         CLOUDY    73  61  65 N6        29.91F
ANDREWS AFB    PTSUNNY   71  66  83 NE9       29.90S
FT BELVOIR     PTSUNNY   71  63  74 VRB2      29.90S
QUANTICO       CLOUDY    75  63  66 N12       29.91R
COLLEGE PARK*  CLOUDY    68  66  94 CALM      29.90F
MANASSAS*      CLOUDY    70  66  88 CALM      29.91S
GAITHERSBURG*  CLOUDY    72  61  68 E3        29.95S

$$

MDZ006>007-011-014-021600-
BALTIMORE METRO

CITY           SKY/WX    TMP DP  RH WIND       PRES   REMARKS
BWI AIRPORT    CLOUDY    70  64  81 E8        29.90F
MD SCIENCE CTR   N/A     73  62  68 MISG      29.93R
MARTIN STATE   MOSUNNY   70  68  94 CALM      29.92F
ANNAPOLIS      PTSUNNY   72  65  78 N7        29.90F
FORT MEADE*    CLOUDY    68  63  83 CALM      29.93S

$$

MDZ012-015-019>023-021600-
MARYLAND EASTERN SHORE

CITY           SKY/WX    TMP DP  RH WIND       PRES   REMARKS
OCEAN CITY     CLOUDY    76  73  91 S7        29.85F FOG
SALISBURY      CLOUDY    74  73  97 E6        29.85F FOG
BAY BRIDGE AP*   N/A     72  64  78 N5        29.90S
CAMBRIDGE*     CLOUDY    70  66  88 NE10      29.88F VSB 3/4
EASTON*        LGT RAIN  70  70 100 NE5       29.93S FOG

$$

MDZ017>025-021600-
SOUTHERN MARYLAND

CITY           SKY/WX    TMP DP  RH WIND       PRES   REMARKS
PATUXENT RIVER PTSUNNY   72  68  87 N12       29.88F
ST INIGOES     CLOUDY    74  68  81 N9        29.87F
LEONARDTOWN*   CLOUDY    70  66  88 NE6       29.90F

$$

MDZ003>005-021600-
NORTH CENTRAL MARYLAND

CITY           SKY/WX    TMP DP  RH WIND       PRES   REMARKS
FREDERICK*     CLOUDY    70  66  88 CALM      29.95S
HAGERSTOWN APT PTSUNNY   73  61  65 CALM      29.92F
WESTMINSTER*   CLOUDY    70  64  83 CALM      29.93S

$$

MDZ501>502-021600-
WESTERN MARYLAND

CITY           SKY/WX    TMP DP  RH WIND       PRES   REMARKS
OAKLAND*       CLOUDY    63 N/A N/A CALM      30.01S
CUMBERLAND*    CLOUDY    68  63  83 S3        29.97F

$$

VAZ025>031-021600-
SHENANDOAH VALLEY

CITY           SKY/WX    TMP DP  RH WIND       PRES   REMARKS
WINCHESTER*    NOT AVBL
FRONT ROYAL*   NOT AVBL
LURAY*         NOT AVBL
NEW MARKET*    NOT AVBL
STAUNTON*      NOT AVBL
WAYNESBORO*    CLOUDY    67  63  89 N3        29.97

$$

WVZ021-048>050-054>055-021600-
EASTERN WEST VIRGINIA PANHANDLE

CITY           SKY/WX    TMP DP  RH WIND       PRES   REMARKS
MARTINSBURG    CLOUDY    69  64  84 S5        29.93S HAZE
PETERSBURG*    NOT AVBL

$$

VAZ036>039-050-021600-
CENTRAL FOOTHILLS

CITY           SKY/WX    TMP DP  RH WIND       PRES   REMARKS
CHARLOTTESVILL CLOUDY    73  62  68 NE7       29.92S HAZE
CULPEPER*      CLOUDY    71  63  77 N5        29.92S
ORANGE*        NOT AVBL
GORDONSVILLE*  NOT AVBL
WARRENTON*     NOT AVBL

$$

VAZ055>057-021600-
NORTH AND CENTRAL PIEDMONT

CITY           SKY/WX    TMP DP  RH WIND       PRES   REMARKS
FREDERICKSBRG* NOT AVBL
STAFFORD*      NOT AVBL

$$

NCZ024-NYZ072-PAZ021-071-VAZ022-071-021600-
OTHER REGIONAL OBSERVATIONS

CITY           SKY/WX    TMP DP  RH WIND       PRES   REMARKS
NEW YORK CITY  PTSUNNY   76  57  51 CALM      29.95S
PHILADELPHIA   LGT RAIN  71  63  75 NE5       29.91F
PITTSBURGH     CLOUDY    69  60  73 VRB3      29.95R
ROANOKE        CLOUDY    73  65  75 SW6       29.96S
RICHMOND       CLOUDY    79  71  76 SW6       29.88S
RALEIGH        CLOUDY    83  71  67 SW9       29.94F

$$

ANZ530>537-021600-
MARINE OBSERVATIONS

STATION/POSITION TIME  TEMP    WIND        PRES
                       AIR SEA DIR/SP/G
                 (UTC) (F)     (DEG/KT/KT) (MB)
THOMAS PT LIGHT  NOT AVBL
BALT KEY BRIDGE  1400   68      20/  8/  9 1012.8F
COVE POINT       1400   67      30/ 12/ 18 1013.2R
LEWISETTA        1400   77 80  280/  6/  7 1011.4R
SOLOMONS ISLAND  1400      79                N/A
PINEY POINT      1400           30/ 12/ 13   N/A

$$




USA.gov is the U.S. government's official web portal to all federal, state and local government web resources and services.